Regional Weather Roundup
Issued by NWS

Home | Current Version | Previous Version | Graphics & Text | Print | Product List | Glossary On
Versions: 1 2 3 4 5 6 7 8 9 10 11 12 13 14 15 16 17 18 19 20 21 22 23 24 25 26 27 28 29 30 31 32 33 34 35 36 37 38 39 40 41 42 43 44 45 46 47 48 49 50
000
ASUS44 KMEG 252000
RWRTN
TENNESSEE HOURLY STATE WEATHER ROUNDUP
NATIONAL WEATHER SERVICE MEMPHIS TN
300 PM CDT THU AUG 25 2016

TNZ002-004-019-021-049-052-054-088>092-252100-
WEST TENNESSEE

CITY           SKY/WX    TMP DP  RH WIND       PRES   REMARKS
MEMPHIS INTL   MOSUNNY   96  75  50 VRB3      30.06F HX 108
NWS MEMPHIS      N/A     89 N/A N/A MISG        N/A
JACKSON        CLOUDY    87  75  67 SW10G18   30.10F HX  96
DYERSBURG      CLOUDY   N/A N/A N/A MISG        N/A
UNION CITY     SUNNY     91  75  59 SW7       30.07F HX 102
PARIS          SUNNY     90  75  62 SW6       30.11F HX 100
LEXINGTON      MOSUNNY   81  73  78 SW8       30.12R
$$

TNZ008-025-027-028-033-062-065-066-252100-
NORTH MIDDLE TENNESSEE

CITY           SKY/WX    TMP DP  RH WIND       PRES   REMARKS
NASHVILLE      PTSUNNY   92  72  51 W7        30.10F HX  99
CLARKSVILLE    SUNNY     91  72  53 W8        30.09F HX  98
SMYRNA         TSTM      82  73  74 E17G23    30.12S
COOKEVILLE     PTSUNNY   91  75  59 VRB3      30.13F HX 102
CROSSVILLE     CLOUDY    89  68  49 NW8       30.19F HX  93
$$

TNZ061-075-076-078-094-096-097-252100-
SOUTH MIDDLE TENNESSEE

CITY           SKY/WX    TMP DP  RH WIND       PRES   REMARKS
TULLAHOMA      PTSUNNY   91  70  49 CALM      30.15F HX  97
WINCHESTER     SUNNY     91  73  55 NW5       30.13F HX 100
MCMINNVILLE    SUNNY     93  75  55 VRB5      30.13F HX 104
COLUMBIA       SUNNY     93  75  55 VRB3      30.09F HX 104
SHELBYVILLE    SUNNY     95  75  52 SW5       30.13F HX 107
$$

TNZ017-018-042-046-047-252100-
NORTHEAST TENNESSEE

CITY           SKY/WX    TMP DP  RH WIND       PRES   REMARKS
TRI CITIES     MOSUNNY   89  69  51 VRB5      30.16F HX  93
$$

TNZ012-013-036-069-073-074-252100-
CENTRAL EAST TENNESSEE

CITY           SKY/WX    TMP DP  RH WIND       PRES   REMARKS
KNOXVILLE      MOSUNNY   92  68  45 CALM      30.12F HX  96
OAK RIDGE      MOSUNNY   88  71  57 W8        30.15F HX  94
$$

TNZ083-085-099-252100-
SOUTHEAST TENNESSEE

CITY           SKY/WX    TMP DP  RH WIND       PRES   REMARKS
CHATTANOOGA    PTSUNNY   92  67  43 S3        30.11F HX  95
$$

SKY/WX REPORTED AS FAIR MEANS FEW OR NO CLOUDS BELOW
12 THOUSAND FEET.




USA.gov is the U.S. government's official web portal to all federal, state and local government web resources and services.